sat.trackr.live / text

‹ back to catalog

STARLINK-1122

NORAD 44949 · 2020-001AM

PAYLOAD ACTIVE UNKNOWN

§ Identity

Operator
Country
US
Launch date
2020-01-07
Launch site
AFETR
Launch vehicle
Mass (kg)
RCS (m²)

Purposes: comms

External: N2YO · Heavens-Above · Gunter

§ Orbital elements

Epoch: 2026-09-19T23:39:12.441024Z

Period
91.92 min
Inclination
53.1460°
Eccentricity
0.0002687
Mean motion
15.66501672 rev/d
Perigee alt
367.1 km
Apogee alt
370.7 km
Semi-major
6,747.1 km
B*
2.0549e-4
RAAN
107.2762°
Arg perigee
91.2578°
Mean anomaly
268.8747°
Rev number
37,039

§ Raw data

STARLINK-11221 44949U 20001AM  26262.98556066  .00021328  00000+0  20549-3 0  99942 44949  53.1460 107.2762 0002687  91.2578 268.8747 15.66501672370394

JSON: /api/v1/satellites/44949 · /tle

For live sub-satellite position, see the globe view (requires WebGL).

§ Visibility from observer

Set your observer location to see the next 7 days of passes ≥ 10°. The values pass through the URL so the page stays shareable.

No JS? Fill the form by hand. The geolocation button needs JavaScript.